Flag for Germany Weather past 2 weeks in Emmerich am Rhein, North Rhine-Westphalia, Germany

Now
52 °F

Passing clouds.


Feels Like: 46 °F
Forecast: 41 / 45 °F
Wind: 18 mph from Southwest

Location: Niederrhein

Current Time: Dec 19, 2014 at 9:15:11 AM

Latest Report: Dec 19, 2014 at 8:20 AM


Visibility: 6 mi

Pressure: 29.77 "Hg

Humidity: 100%

Dew point: 52 °F

Location of Emmerich am RheinLocation

Historic Weather in Emmerich am Rhein — Graph

°F

Emmerich am Rhein temperature yesterday

Maximum temperature yesterday: 55 °F (at 3:50 PM)
Minimum temperature yesterday: 52 °F (at 5:20 AM)
Average temperature yesterday: 53 °F

Past Weeks' High & Low Weather Summary

 TemperatureHumidityPressure
High55 °F (Dec 18, 3:50 PM)100% (Dec 4, 9:50 AM)30.36 "Hg (Dec 4, 9:50 AM)
Low32 °F (Dec 4, 7:20 AM)71% (Dec 10, 2:20 PM)29.36 "Hg (Dec 12, 12:20 PM)
Average42 °F96%29.93 "Hg
* Reported Dec 4 7:20 AM — Dec 19 7:50 AM, Emmerich am Rhein, Weather by CustomWeather, © 2014

Note: Actual official high and low records may vary slightly from our data, if they occured in-between our weather recording intervals... More about our weather records

Advertising

Emmerich am Rhein weather history for previous 24 hours

 ConditionsComfort  
Time TempWeatherWind HumidityBarometerVisibility
7:50 AM
Dec 19
52 °FPassing clouds.18 mph100%29.77 "Hg6 mi
7:20 AM54 °FPassing clouds.20 mph100%29.77 "HgN/A
6:50 AM52 °FPassing clouds.20 mph100%29.80 "HgN/A
6:20 AM54 °FPassing clouds.21 mph100%29.80 "HgN/A
5:50 AM52 °FPassing clouds.20 mph100%29.80 "HgN/A
5:20 AM54 °FPassing clouds.20 mph100%29.83 "HgN/A
11:50 PM
Dec 18
54 °FPassing clouds.21 mph100%29.86 "Hg5 mi
11:20 PM54 °FPassing clouds.20 mph100%29.86 "Hg6 mi
10:50 PM54 °FPassing clouds.21 mph100%29.86 "HgN/A
10:20 PM54 °FPassing clouds.21 mph100%29.86 "Hg6 mi
9:50 PM54 °FPassing clouds.22 mph100%29.86 "HgN/A
9:20 PM54 °FPassing clouds.18 mph100%29.86 "Hg6 mi
8:50 PM54 °FPassing clouds.17 mph100%29.86 "Hg6 mi
8:20 PM54 °FPassing clouds.15 mph100%29.86 "Hg5 mi
7:50 PM54 °FPassing clouds.16 mph100%29.86 "Hg4 mi
7:20 PM54 °FPassing clouds.18 mph100%29.86 "Hg5 mi
6:50 PM55 °FPassing clouds.20 mph94%29.83 "HgN/A
6:20 PM55 °FPassing clouds.23 mph94%29.83 "HgN/A
5:50 PM55 °FPassing clouds.23 mph100%29.83 "HgN/A
5:20 PM55 °FPartly sunny.20 mph100%29.83 "HgN/A
4:50 PM55 °FDrizzle. Partly sunny.16 mph100%29.80 "Hg6 mi
4:20 PM55 °FDrizzle. Partly sunny.20 mph100%29.80 "Hg6 mi
3:50 PM55 °FDrizzle. Partly sunny.17 mph100%29.80 "Hg4 mi
3:20 PM54 °FDrizzle. Partly sunny.16 mph100%29.80 "Hg4 mi
2:50 PM54 °FDrizzle. Fog.14 mph100%29.80 "Hg1 mi
2:20 PM54 °FDrizzle. Partly sunny.16 mph100%29.80 "Hg5 mi
1:50 PM54 °FDrizzle. Fog.14 mph100%29.80 "Hg1 mi
1:20 PM54 °FDrizzle. Fog.15 mph100%29.80 "Hg1 mi
12:50 PM54 °FDrizzle. Fog.15 mph100%29.80 "Hg1 mi
11:50 AM54 °FDrizzle. Fog.16 mph100%29.83 "Hg2 mi
11:20 AM54 °FDrizzle. Fog.12 mph100%29.83 "Hg3 mi
10:50 AM54 °FDrizzle. Fog.13 mph100%29.83 "Hg2 mi
10:20 AM54 °FDrizzle. Fog.10 mph100%29.83 "Hg2 mi
9:50 AM52 °FDrizzle. Fog.10 mph100%29.80 "Hg2 mi
9:20 AM52 °FDrizzle. Fog.10 mph100%29.80 "Hg2 mi
Weather by CustomWeather, © 2014

See weather overviewHow to use our weather pages